SHIJIAN-17 (SJ-17)

Last updated on Tue Jul 08 2025 00:02:47 GMT+0000 (Coordinated Universal Time)

1 41838U 16065A 25188.73083920 .00000075 00000+0 00000+0 0 9998 2 41838 4.8741 76.8002 0003472 317.0460 337.2055 1.00269497 31771
UTC large
Height (km)
Speed (km/s)
/
Latitude / Longitude
Inclination (degrees)
Orbital Period (minutes)
Azimuth
Elevation
Range (km)
Doppler Factor

Next 0 passes for location: London (51.5072 / 0.1276)

Sorry there are no passes over London.